Alagna, Italy 16 day weather forecast

Slopes altitude range -1 m - -1m

Number of lifts: -1 Pistes: -1km

In some cases the lift and piste totals shown are for the ski domain (e.g. Three Valleys) rather than individual resort (e.g. Courchevel)

Overview

The 16 day weather forecast is fully updated 4 times every day.

    • Wed 26 JUN 2019
    • Wed 26
    • 23C 31C
    • Thu 27 JUN 2019
    • Thu 27
    • 25C 33C
    • Fri 28 JUN 2019
    • Fri 28
    • 25C 31C
    • Sat 29 JUN 2019
    • Sat 29
    • 22C 27C
    • Sun 30 JUN 2019
    • Sun 30
    • 21C 29C
    • Mon 01 JUL 2019
    • Mon 01
    • 23C 31C
    • Tue 02 JUL 2019
    • Tue 02
    • 22C 30C
    • Wed 03 JUL 2019
    • Wed 03
    • 21C 27C
    • Thu 04 JUL 2019
    • Thu 04
    • 21C 27C
    • Fri 05 JUL 2019
    • Fri 05
    • 21C 30C
    • Sat 06 JUL 2019
    • Sat 06
    • 22C 30C
    • Sun 07 JUL 2019
    • Sun 07
    • 20C 24C
    • Mon 08 JUL 2019
    • Mon 08
    • 18C 27C
    • Tue 09 JUL 2019
    • Tue 09
    • 21C 30C
    • Wed 10 JUL 2019
    • Wed 10
    • 21C 31C
    • Thu 11 JUL 2019
    • Thu 11
    • 21C 29C

Date:

Time Type 0°C level Temp Chill Snow Cloud Speed Gust Dir Press
3:00 4667m 20°C 20_3 0cm 0% 3mph 4mph 1024mB
6:00 4663m 20°C 20_4 0cm 0% 4mph 5mph 1025mB
9:00 4663m 23°C 23_1 0cm 0% 1mph 3mph 1024mB
12:00 4648m 31°C 31_7 0cm 0% 7mph 9mph 1024mB
15:00 4620m 31°C 31_8 0cm 0% 8mph 11mph 1022mB
18:00 4641m 31°C 31_6 0cm 0% 6mph 8mph 1023mB
21:00 4587m 24°C 24_4 0cm 0% 4mph 5mph 1025mB
0:00 4572m 23°C 23_3 0cm 34% 3mph 4mph 1024mB
3:00 4600m 22°C 22_5 0cm 71% 5mph 6mph 1023mB
6:00 4599m 22°C 22_5 0cm 37% 5mph 6mph 1022mB
9:00 4587m 25°C 25_4 0cm 0% 4mph 4mph 1021mB
12:00 4598m 33°C 33_3 0cm 0% 3mph 4mph 1019mB
15:00 4645m 35°C 35_3 0cm 0% 3mph 6mph 1018mB
18:00 4601m 35°C 35_2 0cm 0% 2mph 2mph 1017mB
21:00 4659m 27°C 27_6 0cm 0% 6mph 8mph 1018mB
0:00 4699m 24°C 24_6 0cm 0% 6mph 8mph 1017mB
3:00 4666m 23°C 23_4 0cm 0% 4mph 6mph 1016mB
6:00 4609m 22°C 22_4 0cm 0% 4mph 6mph 1016mB
9:00 4657m 25°C 25_8 0cm 0% 8mph 11mph 1016mB
12:00 4666m 31°C 31_10 0cm 0% 10mph 11mph 1015mB
15:00 4678m 31°C 31_12 0cm 0% 12mph 15mph 1014mB
18:00 4730m 31°C 31_12 0cm 0% 12mph 22mph 1015mB
21:00 4672m 24°C 24_12 0cm 0% 12mph 20mph 1017mB
0:00 4687m 23°C 23_11 0cm 2% 11mph 19mph 1018mB
3:00 4756m 21°C 21_9 0cm 0% 9mph 19mph 1018mB
6:00 4804m 20°C 20_6 0cm 0% 6mph 11mph 1019mB
9:00 4856m 22°C 22_12 0cm 0% 12mph 16mph 1019mB
12:00 4873m 27°C 27_12 0cm 0% 12mph 16mph 1018mB
15:00 4885m 28°C 28_12 0cm 0% 12mph 16mph 1017mB
18:00 4910m 28°C 28_9 0cm 0% 9mph 19mph 1018mB
21:00 4902m 22°C 22_5 0cm 0% 5mph 8mph 1020mB
0:00 4859m 20°C 20_2 0cm 0% 2mph 4mph 1020mB
3:00 4831m 18°C 18_1 0cm 0% 1mph 2mph 1020mB
6:00 4799m 18°C 18_2 0cm 0% 2mph 3mph 1020mB
9:00 4797m 21°C 21_3 0cm 0% 3mph 5mph 1020mB
12:00 4784m 29°C 29_6 0cm 0% 6mph 6mph 1019mB
15:00 4727m 30°C 30_5 0cm 0% 5mph 6mph 1018mB
18:00 4704m 30°C 30_4 0cm 0% 4mph 5mph 1018mB
21:00 4677m 23°C 23_2 0cm 13% 2mph 3mph 1020mB
0:00 4587m 21°C 21_1 0cm 6% 1mph 1mph 1020mB
3:00 4565m 20°C 20_2 0cm 0% 2mph 3mph 1019mB
6:00 4540m 20°C 20_3 0cm 25% 3mph 5mph 1019mB
9:00 4547m 23°C 23_3 0cm 1% 3mph 4mph 1019mB
12:00 4521m 31°C 31_0 0cm 33% 0mph 2mph 1018mB
15:00 4559m 32°C 32_2 0cm 25% 2mph 5mph 1016mB
18:00 4547m 32°C 32_3 0cm 25% 3mph 4mph 1016mB
21:00 4460m 23°C 23_4 0cm 80% 4mph 5mph 1018mB
0:00 4285m 19°C 19_7 0cm 90% 7mph 8mph 1018mB
3:00 4079m 19°C 19_5 0cm 97% 5mph 7mph 1016mB
6:00 4409m 18°C 18_4 0cm 73% 4mph 6mph 1016mB
9:00 4310m 22°C 22_3 0cm 98% 3mph 3mph 1016mB
12:00 4374m 30°C 30_5 0cm 71% 5mph 4mph 1014mB
15:00 4383m 31°C 31_4 0cm 4% 4mph 5mph 1014mB
18:00 4288m 31°C 31_1 0cm 28% 1mph 2mph 1014mB
21:00 4185m 21°C 21_8 0cm 99% 8mph 12mph 1016mB
0:00 3913m 20°C 20_2 0cm 97% 2mph 3mph 1016mB
3:00 4095m 19°C 19_4 0cm 100% 4mph 6mph 1016mB
6:00 4078m 19°C 19_2 0cm 97% 2mph 3mph 1017mB
9:00 4095m 21°C 21_2 0cm 92% 2mph 3mph 1017mB
12:00 4201m 27°C 27_6 0cm 82% 6mph 6mph 1016mB
15:00 4195m 28°C 28_6 0cm 45% 6mph 7mph 1016mB
18:00 4162m 28°C 28_5 0cm 29% 5mph 8mph 1016mB
21:00 4108m 21°C 21_5 0cm 60% 5mph 10mph 1018mB
0:00 3861m 20°C 20_5 0cm 80% 5mph 10mph 1018mB
3:00 4028m 20°C 20_2 0cm 100% 2mph 4mph 1017mB
6:00 4099m 19°C 19_4 0cm 80% 4mph 6mph 1018mB
9:00 4049m 21°C 21_2 0cm 57% 2mph 3mph 1018mB
12:00 4185m 27°C 27_5 0cm 68% 5mph 5mph 1017mB
15:00 4338m 28°C 28_5 0cm 0% 5mph 3mph 1016mB
18:00 4322m 28°C 28_4 0cm 0% 4mph 5mph 1016mB
21:00 4323m 22°C 22_3 0cm 34% 3mph 4mph 1017mB
0:00 4273m 21°C 21_3 0cm 47% 3mph 5mph 1018mB
3:00 4290m 19°C 19_4 0cm 0% 4mph 5mph 1017mB
6:00 4332m 18°C 18_5 0cm 0% 5mph 8mph 1018mB
9:00 4356m 21°C 21_4 0cm 0% 4mph 5mph 1018mB
12:00 4382m 30°C 30_1 0cm 0% 1mph 4mph 1017mB
15:00 4466m 31°C 31_4 0cm 0% 4mph 6mph 1016mB
18:00 4457m 31°C 31_5 0cm 0% 5mph 7mph 1016mB
21:00 4437m 22°C 22_5 0cm 23% 5mph 6mph 1017mB
0:00 4380m 20°C 20_4 0cm 42% 4mph 5mph 1016mB
Afternoon 0mm 0 4587m 30°C 30_3 0cm 7% 3mph 4mph 1013mB
Morning 0.0208333mm 0.125 4787m 21°C 21_20 0cm 0% 20mph 33mph 1018mB
Afternoon 0mm 0 4876m 24°C 24_13 0cm 2% 13mph 16mph 1020mB
Morning 0mm 0 4693m 16°C 16_2 0cm 0% 2mph 3mph 1020mB
Afternoon 0mm 0 4583m 27°C 27_6 0cm 22% 6mph 6mph 1017mB
Morning 0.3125mm 0.9375 4569m 19°C 19_1 0cm 50% 1mph 1mph 1018mB
Afternoon 0mm 0 4594m 30°C 30_3 0cm 0% 3mph 5mph 1017mB
Morning 0.0208333mm 0.0625 4388m 20°C 20_1 0cm 20% 1mph 3mph 1018mB
Afternoon 0mm 0 4425m 31°C 31_4 0cm 16% 4mph 6mph 1015mB
Morning 0.229167mm 0.6875 4391m 19°C 19_0 0cm 1% 0mph 1mph 1015mB
Afternoon 0mm 0 4296m 29°C 29_5 0cm 0% 5mph 5mph 1013mB
Morning 0.25mm 0.8125 4170m 19°C 19_5 0cm 54% 5mph 6mph 1010mB

16 day outlook at a glance

Forecast issued: 6/26/2019 7:48:43 AM

Chat

Your comments and questions. In a resort? Let us know what it's like!


Characters left 250

For terms and conditions see Readers Comments on the Cookie and privacy policy page.